Precipitable_Water
0.17 0.18 0.18 0.21 0.21 0.23 0.25 0.27 0.24 0.33 0.35 0.37 0.42 0.43 0.44 0.48 0.49 0.50 0.51 0.52 0.52 0.52 0.52 0.55 0.59 0.68 0.74 0.76 0.79 0.82 0.81 0.81 0.81 0.82 0.82 0.81 0.80 0.81 0.85 0.88 0.90 0.90 0.90 0.84
0.15 0.19 0.19 0.17 0.20 0.23 0.26 0.27 0.29 0.30 0.31 0.43 0.46 0.49 0.48 0.49 0.50 0.50 0.51 0.54 0.56 0.55 0.54 0.55 0.57 0.58 0.61 0.64 0.71 0.78 0.78 0.78 0.81 0.79 0.78 0.77 0.76 0.75 0.76 0.78 0.80 0.78 0.75 0.76
0.12 0.17 0.19 0.17 0.25 0.30 0.33 0.35 0.34 0.27 0.35 0.44 0.44 0.47 0.50 0.51 0.53 0.54 0.54 0.55 0.55 0.56 0.56 0.57 0.58 0.60 0.60 0.62 0.64 0.63 0.63 0.64 0.65 0.66 0.66 0.68 0.71 0.71 0.71 0.71 0.72 0.74 0.78 0.82
0.13 0.17 0.11 0.25 0.35 0.38 0.33 0.36 0.40 0.39 0.41 0.45 0.47 0.50 0.54 0.56 0.56 0.55 0.57 0.58 0.58 0.58 0.59 0.61 0.62 0.62 0.63 0.66 0.66 0.65 0.64 0.64 0.65 0.65 0.65 0.67 0.67 0.67 0.69 0.71 0.72 0.74 0.76 0.77
0.11 0.11 0.17 0.24 0.31 0.30 0.28 0.32 0.43 0.42 0.46 0.49 0.51 0.50 0.48 0.57 0.60 0.58 0.59 0.60 0.61 0.63 0.63 0.64 0.64 0.64 0.63 0.63 0.63 0.64 0.65 0.65 0.66 0.67 0.64 0.65 0.65 0.66 0.69 0.70 0.72 0.73 0.75 0.74
0.13 0.08 0.08 0.21 0.31 0.39 0.37 0.23 0.42 0.46 0.46 0.47 0.51 0.40 0.46 0.58 0.61 0.62 0.63 0.64 0.63 0.64 0.65 0.65 0.65 0.66 0.64 0.61 0.61 0.61 0.63 0.66 0.69 0.70 0.69 0.67 0.68 0.69 0.72 0.73 0.71 0.72 0.72 0.73
0.11 0.10 0.12 0.21 0.30 0.37 0.20 0.23 0.41 0.46 0.47 0.48 0.45 0.50 0.58 0.64 0.64 0.67 0.68 0.68 0.68 0.65 0.62 0.63 0.65 0.64 0.60 0.60 0.58 0.61 0.63 0.67 0.68 0.70 0.71 0.71 0.72 0.72 0.71 0.71 0.72 0.71 0.70 0.69
0.12 0.10 0.09 0.25 0.30 0.21 0.28 0.34 0.36 0.40 0.44 0.46 0.51 0.56 0.58 0.60 0.62 0.64 0.66 0.69 0.70 0.67 0.65 0.65 0.65 0.62 0.58 0.56 0.60 0.61 0.61 0.60 0.64 0.66 0.68 0.70 0.70 0.69 0.71 0.72 0.69 0.68 0.68 0.68
0.14 0.13 0.22 0.30 0.29 0.33 0.35 0.34 0.35 0.34 0.35 0.37 0.39 0.47 0.56 0.58 0.59 0.61 0.63 0.65 0.67 0.67 0.66 0.68 0.66 0.64 0.59 0.59 0.61 0.61 0.60 0.58 0.61 0.67 0.70 0.71 0.69 0.69 0.68 0.69 0.67 0.67 0.68 0.68
0.18 0.20 0.22 0.26 0.32 0.34 0.35 0.33 0.35 0.35 0.35 0.36 0.35 0.38 0.43 0.57 0.60 0.60 0.61 0.63 0.65 0.64 0.62 0.63 0.66 0.68 0.66 0.63 0.63 0.63 0.61 0.61 0.65 0.68 0.70 0.71 0.71 0.70 0.70 0.70 0.70 0.70 0.70 0.69
0.18 0.21 0.24 0.26 0.29 0.30 0.33 0.34 0.34 0.35 0.35 0.35 0.34 0.36 0.38 0.43 0.60 0.61 0.60 0.61 0.62 0.63 0.63 0.64 0.67 0.66 0.68 0.67 0.66 0.65 0.65 0.66 0.69 0.72 0.72 0.72 0.73 0.74 0.73 0.75 0.76 0.73 0.73 0.72
0.13 0.20 0.19 0.22 0.26 0.31 0.31 0.30 0.31 0.30 0.30 0.33 0.35 0.34 0.38 0.41 0.55 0.59 0.58 0.59 0.59 0.62 0.63 0.64 0.65 0.67 0.70 0.70 0.69 0.68 0.68 0.70 0.71 0.72 0.70 0.70 0.70 0.71 0.77 0.78 0.79 0.79 0.80 0.78
0.19 0.24 0.24 0.27 0.30 0.33 0.27 0.29 0.31 0.33 0.34 0.33 0.36 0.38 0.39 0.42 0.55 0.60 0.59 0.59 0.60 0.62 0.64 0.64 0.65 0.64 0.65 0.70 0.71 0.72 0.68 0.73 0.72 0.71 0.69 0.69 0.69 0.68 0.67 0.73 0.77 0.78 0.77 0.75
0.27 0.26 0.24 0.27 0.26 0.30 0.30 0.33 0.37 0.39 0.38 0.41 0.41 0.43 0.46 0.47 0.58 0.60 0.61 0.62 0.62 0.62 0.62 0.63 0.62 0.62 0.66 0.69 0.70 0.69 0.71 0.72 0.70 0.71 0.72 0.70 0.69 0.68 0.67 0.66 0.65 0.68 0.73 0.73
0.27 0.29 0.28 0.31 0.31 0.31 0.34 0.37 0.37 0.36 0.39 0.41 0.43 0.43 0.46 0.50 0.58 0.60 0.62 0.63 0.63 0.62 0.63 0.66 0.64 0.61 0.63 0.63 0.62 0.62 0.62 0.63 0.65 0.66 0.68 0.70 0.70 0.69 0.70 0.69 0.67 0.67 0.69 0.71
0.28 0.29 0.30 0.30 0.29 0.32 0.34 0.36 0.37 0.38 0.41 0.43 0.44 0.47 0.51 0.56 0.58 0.59 0.61 0.63 0.59 0.59 0.63 0.64 0.63 0.64 0.65 0.65 0.64 0.63 0.63 0.63 0.62 0.61 0.60 0.61 0.63 0.65 0.64 0.65 0.64 0.65 0.65 0.64
0.25 0.24 0.27 0.27 0.29 0.32 0.35 0.38 0.40 0.41 0.43 0.44 0.47 0.50 0.52 0.53 0.55 0.56 0.57 0.59 0.60 0.60 0.60 0.61 0.61 0.62 0.63 0.62 0.61 0.61 0.61 0.61 0.61 0.59 0.56 0.55 0.55 0.57 0.60 0.61 0.61 0.61 0.62 0.64
0.31 0.30 0.30 0.30 0.31 0.33 0.36 0.39 0.40 0.42 0.42 0.45 0.48 0.48 0.49 0.49 0.50 0.52 0.55 0.57 0.58 0.58 0.60 0.60 0.62 0.63 0.61 0.60 0.58 0.55 0.54 0.53 0.53 0.51 0.51 0.51 0.52 0.54 0.55 0.55 0.56 0.56 0.57 0.58
0.33 0.32 0.33 0.33 0.35 0.35 0.36 0.38 0.40 0.42 0.43 0.43 0.44 0.45 0.48 0.49 0.49 0.51 0.54 0.53 0.52 0.52 0.56 0.60 0.60 0.60 0.58 0.57 0.53 0.49 0.46 0.45 0.45 0.45 0.45 0.45 0.45 0.47 0.49 0.51 0.51 0.52 0.53 0.53
0.33 0.34 0.35 0.35 0.37 0.37 0.36 0.39 0.40 0.39 0.39 0.39 0.40 0.42 0.43 0.44 0.45 0.46 0.47 0.46 0.50 0.52 0.56 0.56 0.55 0.53 0.50 0.50 0.49 0.46 0.43 0.42 0.41 0.41 0.42 0.41 0.41 0.41 0.42 0.43 0.44 0.45 0.46 0.46
0.33 0.33 0.34 0.35 0.36 0.38 0.38 0.39 0.36 0.32 0.31 0.30 0.28 0.28 0.28 0.29 0.30 0.32 0.31 0.31 0.35 0.40 0.44 0.45 0.44 0.43 0.43 0.43 0.41 0.39 0.39 0.37 0.36 0.36 0.36 0.36 0.36 0.36 0.36 0.37 0.38 0.39 0.38 0.38
0.32 0.33 0.34 0.37 0.37 0.37 0.37 0.36 0.33 0.30 0.30 0.32 0.34 0.34 0.34 0.33 0.32 0.31 0.31 0.29 0.30 0.32 0.34 0.36 0.39 0.43 0.43 0.40 0.38 0.35 0.33 0.33 0.31 0.31 0.30 0.30 0.30 0.28 0.27 0.27 0.27 0.27 0.28 0.29
0.33 0.34 0.35 0.36 0.35 0.34 0.35 0.34 0.35 0.35 0.36 0.38 0.38 0.39 0.39 0.40 0.41 0.39 0.37 0.39 0.37 0.35 0.35 0.34 0.31 0.32 0.36 0.39 0.38 0.35 0.33 0.31 0.31 0.32 0.32 0.32 0.31 0.29 0.27 0.26 0.26 0.26 0.26 0.26
0.32 0.34 0.35 0.37 0.37 0.36 0.33 0.35 0.37 0.37 0.36 0.35 0.35 0.36 0.35 0.35 0.38 0.42 0.44 0.43 0.40 0.40 0.39 0.37 0.35 0.32 0.31 0.33 0.33 0.32 0.33 0.33 0.33 0.32 0.31 0.31 0.30 0.29 0.28 0.27 0.26 0.26 0.26 0.25
0.34 0.35 0.36 0.35 0.32 0.31 0.32 0.32 0.31 0.29 0.29 0.28 0.29 0.30 0.32 0.33 0.32 0.34 0.36 0.39 0.43 0.43 0.43 0.43 0.41 0.38 0.35 0.31 0.30 0.29 0.28 0.30 0.31 0.31 0.30 0.30 0.31 0.32 0.33 0.31 0.28 0.26 0.25 0.25
0.35 0.34 0.34 0.34 0.32 0.31 0.30 0.28 0.25 0.25 0.24 0.22 0.22 0.23 0.24 0.25 0.26 0.28 0.32 0.34 0.36 0.40 0.43 0.43 0.44 0.43 0.41 0.38 0.33 0.30 0.29 0.29 0.29 0.30 0.31 0.33 0.35 0.34 0.36 0.35 0.30 0.28 0.26 0.24
0.37 0.37 0.35 0.32 0.31 0.29 0.27 0.26 0.23 0.22 0.23 0.22 0.20 0.22 0.22 0.21 0.20 0.20 0.20 0.21 0.23 0.26 0.30 0.39 0.43 0.43 0.43 0.42 0.41 0.38 0.35 0.33 0.33 0.33 0.35 0.38 0.35 0.33 0.33 0.34 0.30 0.26 0.25 0.23
Wind_Speed
16 16 13 9 7 3 8 9 7 3 9 12 8 7 8 10 11 13 13 13 15 16 16 17 17 19 20 21 23 24 25 26 26 26 26 26 26 26 25 25 25 25 24 24
15 18 15 10 7 3 5 11 12 12 14 13 17 15 12 11 13 13 13 14 15 17 17 18 19 19 20 22 23 24 25 26 26 26 26 26 26 25 25 25 25 25 24 25
15 18 14 12 12 8 5 2 7 11 11 11 13 15 17 16 17 17 17 16 16 16 17 17 18 20 21 22 23 24 25 26 26 26 25 26 26 26 26 26 26 25 26 26
13 14 13 13 13 11 7 5 5 7 11 14 15 16 18 19 20 20 20 19 18 18 18 18 18 19 20 22 24 25 26 27 27 27 28 28 27 27 26 26 26 26 26 25
12 12 13 12 11 10 10 6 7 6 7 8 11 13 10 13 16 18 19 20 20 21 21 22 22 22 23 24 25 26 28 29 29 28 28 29 29 29 28 28 27 27 26 26
10 11 11 12 12 13 11 8 7 7 6 8 7 8 11 14 16 17 18 21 22 22 23 23 24 25 26 26 27 28 29 30 30 30 30 30 30 29 29 29 28 27 26 26
8 10 10 10 13 11 11 13 9 8 7 8 7 8 11 12 13 16 16 19 21 22 23 23 24 25 26 26 27 28 28 28 29 30 30 29 28 28 28 28 28 27 27 26
7 8 10 9 11 12 14 14 12 12 11 11 12 13 11 10 12 11 12 12 14 18 19 20 21 23 24 25 26 26 26 27 27 27 26 26 26 26 27 27 27 27 27 26
5 8 9 9 12 14 14 15 15 15 15 14 13 14 15 15 13 13 13 13 13 13 14 16 17 19 21 22 22 23 23 24 24 25 25 25 25 25 25 25 25 25 25 25
8 7 8 11 12 13 15 15 17 17 17 17 15 15 15 15 14 12 12 13 13 13 13 14 15 15 17 19 20 21 22 22 23 23 23 23 23 24 24 25 25 24 24 24
8 9 9 11 12 13 15 17 19 20 20 18 16 14 15 15 16 14 13 12 12 12 13 14 14 14 14 14 17 18 19 20 21 21 22 22 22 23 24 24 24 24 24 23
7 6 9 10 11 14 17 18 20 20 20 18 14 12 12 14 15 16 15 13 13 12 13 13 13 13 13 13 13 16 17 19 20 21 21 22 22 22 23 24 24 24 23 24
6 6 9 11 13 15 16 16 18 20 20 18 14 8 8 10 12 14 14 14 14 14 14 13 13 12 12 13 13 14 15 17 18 20 21 22 22 22 23 23 24 24 24 24
4 6 9 11 13 14 14 16 18 19 18 16 13 8 5 6 8 11 13 13 14 15 15 15 14 13 13 13 13 14 15 17 18 18 21 21 22 23 22 23 24 23 24 24
5 8 10 11 12 13 14 16 16 16 17 16 13 9 6 5 7 9 10 11 12 12 14 13 14 14 13 13 14 14 16 16 17 19 20 21 21 22 22 23 23 23 24 23
5 7 9 11 11 13 14 14 15 15 15 14 13 10 7 6 5 8 10 11 12 12 11 12 13 14 15 15 15 16 17 17 18 19 20 21 22 23 23 24 24 24 23 23
4 8 9 10 11 12 13 14 14 14 14 13 12 11 10 8 8 9 11 13 14 15 16 17 17 18 18 18 18 17 18 18 19 19 20 20 21 22 23 23 24 25 25 25
7 9 9 11 11 12 14 15 15 15 15 15 15 14 13 13 13 14 16 17 18 19 19 20 20 20 20 20 20 20 20 19 19 20 20 20 21 21 21 22 23 23 23 23
8 9 10 12 12 13 14 15 16 16 16 16 16 16 15 16 16 17 17 18 20 21 22 23 22 23 23 23 23 22 21 21 20 20 20 20 20 20 20 20 20 21 21 21
8 10 11 12 14 14 15 16 17 17 18 18 18 18 18 18 18 19 19 21 21 22 23 24 25 24 24 24 24 24 23 23 22 21 20 19 19 19 19 19 19 20 20 21
9 10 12 14 14 15 16 17 17 18 18 18 19 19 19 20 20 20 20 21 21 22 23 24 25 26 26 27 26 24 23 23 22 21 20 19 18 18 18 18 18 19 19 20
10 12 13 14 15 16 17 18 19 19 19 20 20 21 21 21 21 21 21 22 22 23 23 23 24 25 25 26 26 25 24 23 22 21 19 19 18 18 17 18 18 18 18 19
11 12 14 15 16 17 18 19 20 21 22 23 24 24 24 24 24 24 24 24 25 24 24 24 23 23 23 23 23 24 22 23 22 20 20 19 19 18 18 18 18 18 18 18
12 14 15 17 18 19 20 21 22 24 25 26 26 27 27 26 26 26 26 26 26 26 25 24 23 22 21 20 21 22 22 21 21 21 20 19 18 18 18 18 18 17 17 16
13 15 16 18 19 21 22 23 25 25 26 26 26 27 27 26 26 27 27 27 27 26 25 24 23 22 21 20 19 20 22 22 21 20 20 20 19 18 18 17 17 17 16 16
14 16 18 20 21 23 23 24 24 25 26 27 27 27 27 27 27 27 27 26 25 24 23 22 22 21 21 20 20 19 20 22 23 23 22 21 20 20 19 19 18 18 17 16
16 18 20 21 23 23 24 24 25 26 26 27 27 27 28 29 28 27 26 24 22 21 20 19 19 20 21 22 22 21 22 21 22 23 23 23 22 21 20 19 19 19 18 18
Wind_Direction
5 5 359 353 344 291 233 237 236 245 238 246 250 251 235 219 213 212 214 222 226 227 227 227 227 225 225 227 228 230 232 234 237 241 244 245 246 247 246 247 248 248 247 249
18 17 23 22 12 345 276 251 248 250 256 256 253 244 242 228 223 224 230 236 231 228 229 230 231 231 231 232 233 234 236 238 240 242 244 245 245 244 244 246 247 245 248 251
24 23 29 34 26 18 7 320 261 250 257 268 262 247 241 239 234 238 238 240 239 236 234 234 236 238 238 237 237 238 239 240 241 241 241 241 242 243 244 245 245 247 251 255
19 17 26 26 21 21 21 359 325 287 277 269 263 253 247 244 241 243 242 241 239 237 237 239 240 241 241 242 241 241 242 243 243 243 242 243 244 244 244 245 246 248 251 253
18 19 17 25 20 11 0 348 335 303 301 295 275 241 232 245 244 244 244 243 243 243 244 245 246 247 248 247 247 247 247 247 246 243 244 243 243 244 245 246 247 249 250 253
16 15 17 26 15 6 1 347 349 319 296 303 300 243 250 262 253 250 251 249 247 247 248 249 250 251 251 252 251 251 250 247 245 244 245 245 246 246 247 246 247 248 250 253
9 7 3 10 9 16 4 10 360 344 316 288 273 269 269 268 262 253 257 251 249 249 251 253 255 254 253 253 252 253 249 246 245 244 245 245 244 244 245 245 245 247 248 250
11 2 5 12 14 0 360 350 344 332 320 299 276 270 269 273 270 261 255 252 252 249 251 254 258 256 254 254 254 252 248 245 243 242 242 242 242 243 244 244 243 244 247 249
343 357 4 2 355 351 351 345 342 335 326 314 294 273 267 268 273 265 258 256 256 256 255 256 260 259 256 254 254 250 246 243 240 239 240 241 242 241 240 240 241 242 245 248
341 348 329 337 344 346 345 344 341 335 328 319 298 279 269 262 262 264 259 258 258 258 260 263 265 266 262 255 251 247 243 239 237 236 238 240 241 239 238 239 240 242 244 248
317 319 338 333 339 343 344 342 340 335 330 321 309 282 267 259 254 256 256 258 260 260 263 264 267 267 268 261 250 244 241 237 235 236 238 239 240 240 239 240 240 242 244 247
324 338 343 349 347 345 343 341 345 345 341 336 318 293 266 259 253 249 250 255 260 264 264 266 266 268 269 266 256 245 240 239 237 238 241 242 242 243 242 242 243 245 247 251
318 327 340 343 342 343 344 345 347 348 347 343 339 313 276 259 255 245 246 253 260 261 266 263 264 267 269 266 259 252 245 241 240 243 244 244 244 244 244 245 244 246 249 251
305 325 332 335 341 341 340 341 343 346 353 353 348 340 309 272 258 245 250 258 264 267 262 259 258 264 267 266 260 255 250 248 248 249 245 245 246 245 246 245 246 246 249 253
286 311 330 335 336 339 339 340 344 350 354 357 356 349 332 294 256 250 258 261 270 271 261 257 253 260 263 267 265 260 256 254 253 250 249 247 247 246 245 245 245 249 252 255
283 309 323 327 330 334 337 339 342 344 347 351 355 353 339 318 279 269 263 268 268 268 266 259 259 260 265 268 269 267 261 259 257 255 253 251 250 248 248 248 248 248 251 255
286 309 315 321 325 328 333 334 334 334 337 338 335 332 324 308 290 281 278 274 271 270 270 265 267 267 268 267 268 269 265 261 260 258 256 254 252 250 249 249 250 251 254 255
298 314 312 319 322 324 326 328 328 327 325 323 320 313 308 301 292 286 281 279 277 273 273 269 269 270 269 267 267 267 267 265 264 261 258 257 255 254 253 252 252 252 253 255
292 305 313 318 321 321 322 323 324 325 324 321 318 314 307 301 296 292 287 283 280 276 271 268 270 271 269 268 265 266 265 264 264 263 260 257 255 254 253 253 252 252 253 255
288 301 311 316 319 320 321 322 321 321 320 319 316 312 308 305 301 296 292 288 283 280 275 272 270 269 267 267 265 265 264 262 260 261 258 256 255 254 254 254 254 254 255 257
287 300 310 313 315 318 319 321 321 321 320 318 317 315 311 308 305 301 296 293 289 286 281 278 274 272 269 266 263 261 260 258 257 257 255 253 253 253 254 255 255 256 256 257
288 299 307 312 314 317 319 319 319 319 319 318 317 315 313 311 308 304 300 295 295 291 287 283 280 276 271 265 261 259 257 255 253 252 251 251 251 253 255 257 257 257 257 257
292 301 308 311 313 315 316 316 316 315 315 315 313 312 310 308 305 303 301 298 296 293 289 286 284 280 276 267 261 255 255 250 248 248 249 250 252 254 256 257 257 256 256 256
294 302 307 310 312 313 313 314 314 314 314 313 312 311 309 309 307 305 303 300 298 294 289 285 283 280 276 268 262 254 250 246 245 244 245 246 250 253 255 256 255 254 251 249
296 303 307 309 310 312 314 314 314 315 316 316 316 315 315 313 309 309 305 303 299 295 291 285 280 277 273 267 263 257 248 243 244 244 246 247 249 251 253 252 250 248 247 245
298 303 307 309 311 312 313 314 315 316 317 317 318 318 318 317 316 313 311 308 304 300 296 287 279 274 270 265 261 258 254 247 244 246 247 249 249 251 252 251 248 244 244 245
300 303 307 309 310 310 312 313 315 316 317 318 318 319 319 319 318 317 314 311 308 305 302 295 287 277 269 264 261 259 254 251 247 246 247 248 249 250 249 247 246 245 245 246